TimeCST,TemperatureF,Dew PointF,Humidity,Sea Level PressureIn,VisibilityMPH,Wind Direction,Wind SpeedMPH,Gust SpeedMPH,PrecipitationIn,Events,Conditions,WindDirDegrees,DateUTC
12:15 AM,20.5,18.0,90,30.27,10.0,Calm,Calm,-,N/A,,Overcast,0,2014-02-10 06:15:00
12:35 AM,19.9,17.6,91,30.27,10.0,Calm,Calm,-,N/A,,Mostly Cloudy,0,2014-02-10 06:35:00
12:55 AM,19.6,17.1,90,30.27,10.0,Calm,Calm,-,N/A,,Mostly Cloudy,0,2014-02-10 06:55:00
1:15 AM,19.2,16.5,89,30.27,10.0,Calm,Calm,-,N/A,,Overcast,0,2014-02-10 07:15:00
1:35 AM,19.2,16.7,90,30.27,10.0,Calm,Calm,-,N/A,,Overcast,0,2014-02-10 07:35:00
1:55 AM,18.7,15.8,89,30.29,10.0,Calm,Calm,-,N/A,,Overcast,0,2014-02-10 07:55:00
2:15 AM,18.5,14.9,86,30.28,10.0,Calm,Calm,-,N/A,,Overcast,0,2014-02-10 08:15:00
2:35 AM,18.1,14.9,87,30.29,10.0,Calm,Calm,-,N/A,,Mostly Cloudy,0,2014-02-10 08:35:00
2:55 AM,18.0,14.0,84,30.28,10.0,Calm,Calm,-,N/A,,Scattered Clouds,0,2014-02-10 08:55:00
3:15 AM,17.4,13.8,86,30.28,10.0,Calm,Calm,-,N/A,,Scattered Clouds,0,2014-02-10 09:15:00
3:35 AM,17.2,14.0,87,30.28,10.0,Calm,Calm,-,N/A,,Scattered Clouds,0,2014-02-10 09:35:00
3:55 AM,17.2,14.0,87,30.29,10.0,Calm,Calm,-,N/A,,Clear,0,2014-02-10 09:55:00
4:15 AM,16.7,13.5,87,30.29,10.0,Calm,Calm,-,N/A,,Scattered Clouds,0,2014-02-10 10:15:00
4:35 AM,16.7,13.1,86,30.31,10.0,Calm,Calm,-,N/A,,Clear,0,2014-02-10 10:35:00
4:55 AM,16.7,13.5,87,30.31,10.0,Calm,Calm,-,N/A,,Scattered Clouds,0,2014-02-10 10:55:00
5:15 AM,16.7,13.6,88,30.32,10.0,Calm,Calm,-,N/A,,Scattered Clouds,0,2014-02-10 11:15:00
5:35 AM,16.7,13.5,87,30.32,10.0,Calm,Calm,-,N/A,,Mostly Cloudy,0,2014-02-10 11:35:00
5:55 AM,17.1,13.3,85,30.32,10.0,Calm,Calm,-,N/A,,Overcast,0,2014-02-10 11:55:00
6:15 AM,16.7,12.9,85,30.31,10.0,Calm,Calm,-,N/A,,Overcast,0,2014-02-10 12:15:00
6:35 AM,16.7,13.3,86,30.34,10.0,Calm,Calm,-,N/A,,Overcast,0,2014-02-10 12:35:00
6:55 AM,16.3,11.5,81,30.34,10.0,Calm,Calm,-,N/A,,Overcast,0,2014-02-10 12:55:00
7:15 AM,15.8,11.3,82,30.35,10.0,Calm,Calm,-,N/A,,Overcast,0,2014-02-10 13:15:00
7:35 AM,15.8,11.8,84,30.37,10.0,Calm,Calm,-,N/A,,Overcast,0,2014-02-10 13:35:00
7:55 AM,15.8,11.5,83,30.37,10.0,Calm,Calm,-,N/A,,Overcast,0,2014-02-10 13:55:00
8:15 AM,15.6,11.5,84,30.37,10.0,Calm,Calm,-,N/A,,Overcast,0,2014-02-10 14:15:00
8:35 AM,15.8,12.0,85,30.37,7.0,Calm,Calm,-,N/A,,Overcast,0,2014-02-10 14:35:00
8:55 AM,15.8,12.0,85,30.37,7.0,Calm,Calm,-,N/A,,Overcast,0,2014-02-10 14:55:00
9:15 AM,15.8,11.8,84,30.38,7.0,Calm,Calm,-,N/A,,Overcast,0,2014-02-10 15:15:00
9:35 AM,15.8,12.2,86,30.40,7.0,Calm,Calm,-,N/A,,Overcast,0,2014-02-10 15:35:00
9:55 AM,15.6,11.8,85,30.40,7.0,Calm,Calm,-,N/A,,Overcast,0,2014-02-10 15:55:00
10:15 AM,16.2,12.4,85,30.40,7.0,Calm,Calm,-,N/A,,Overcast,0,2014-02-10 16:15:00
10:35 AM,16.3,12.0,83,30.40,10.0,Calm,Calm,-,N/A,,Overcast,0,2014-02-10 16:35:00
10:55 AM,16.5,11.7,81,30.40,10.0,Calm,Calm,-,N/A,,Scattered Clouds,0,2014-02-10 16:55:00
11:15 AM,17.2,12.4,81,30.39,10.0,Calm,Calm,-,N/A,,Scattered Clouds,0,2014-02-10 17:15:00
11:35 AM,17.2,12.6,82,30.38,10.0,Calm,Calm,-,N/A,,Scattered Clouds,0,2014-02-10 17:35:00
11:55 AM,17.6,12.4,80,30.37,10.0,Calm,Calm,-,N/A,,Clear,0,2014-02-10 17:55:00
12:15 PM,18.3,13.1,80,30.37,10.0,Calm,Calm,-,N/A,,Scattered Clouds,0,2014-02-10 18:15:00
12:35 PM,18.5,12.7,78,30.36,10.0,Calm,Calm,-,N/A,,Mostly Cloudy,0,2014-02-10 18:35:00
12:55 PM,18.5,12.9,79,30.36,10.0,Calm,Calm,-,N/A,,Mostly Cloudy,0,2014-02-10 18:55:00
1:15 PM,18.5,12.4,77,30.35,10.0,Calm,Calm,-,N/A,,Clear,0,2014-02-10 19:15:00
1:35 PM,18.5,11.7,75,30.35,10.0,Calm,Calm,-,N/A,,Clear,0,2014-02-10 19:35:00
1:55 PM,18.5,11.8,75,30.34,10.0,Calm,Calm,-,N/A,,Clear,0,2014-02-10 19:55:00
2:15 PM,18.5,11.3,73,30.35,10.0,Calm,Calm,-,N/A,,Clear,0,2014-02-10 20:15:00
2:35 PM,18.3,11.8,76,30.34,10.0,Calm,Calm,-,N/A,,Clear,0,2014-02-10 20:35:00
2:55 PM,17.4,11.1,76,30.34,10.0,Calm,Calm,-,N/A,,Clear,0,2014-02-10 20:55:00
3:15 PM,16.9,9.9,74,30.35,10.0,Calm,Calm,-,N/A,,Clear,0,2014-02-10 21:15:00
3:35 PM,16.7,10.0,75,30.37,10.0,Calm,Calm,-,N/A,,Clear,0,2014-02-10 21:35:00
3:55 PM,16.2,9.5,75,30.36,10.0,Calm,Calm,-,N/A,,Clear,0,2014-02-10 21:55:00
4:15 PM,15.3,8.6,75,30.36,10.0,Calm,Calm,-,N/A,,Clear,0,2014-02-10 22:15:00
4:35 PM,14.5,7.7,74,30.36,10.0,Calm,Calm,-,N/A,,Clear,0,2014-02-10 22:35:00
4:55 PM,14.5,8.6,77,30.37,10.0,Calm,Calm,-,N/A,,Clear,0,2014-02-10 22:55:00
5:15 PM,14.0,7.7,76,30.38,10.0,Calm,Calm,-,N/A,,Clear,0,2014-02-10 23:15:00
5:35 PM,13.1,7.7,79,30.37,10.0,Calm,Calm,-,N/A,,Clear,0,2014-02-10 23:35:00
5:55 PM,12.7,7.3,79,30.40,10.0,Calm,Calm,-,N/A,,Clear,0,2014-02-10 23:55:00
6:15 PM,12.2,5.9,76,30.40,10.0,Calm,Calm,-,N/A,,Clear,0,2014-02-11 00:15:00
6:35 PM,12.0,5.9,76,30.41,10.0,Calm,Calm,-,N/A,,Clear,0,2014-02-11 00:35:00
6:55 PM,11.7,6.3,79,30.41,10.0,Calm,Calm,-,N/A,,Clear,0,2014-02-11 00:55:00
7:15 PM,11.3,5.9,79,30.39,10.0,Calm,Calm,-,N/A,,Clear,0,2014-02-11 01:15:00
7:35 PM,11.1,5.4,78,30.39,10.0,Calm,Calm,-,N/A,,Clear,0,2014-02-11 01:35:00
7:55 PM,10.8,5.0,78,30.38,10.0,Calm,Calm,-,N/A,,Clear,0,2014-02-11 01:55:00
8:15 PM,10.4,4.8,78,30.40,10.0,Calm,Calm,-,N/A,,Clear,0,2014-02-11 02:15:00
8:35 PM,10.0,5.0,80,30.41,10.0,Calm,Calm,-,N/A,,Clear,0,2014-02-11 02:35:00
8:55 PM,9.7,4.6,80,30.41,10.0,Calm,Calm,-,N/A,,Clear,0,2014-02-11 02:55:00
9:15 PM,9.3,4.8,82,30.41,10.0,Calm,Calm,-,N/A,,Clear,0,2014-02-11 03:15:00
9:35 PM,9.5,4.6,81,30.43,10.0,Calm,Calm,-,N/A,,Clear,0,2014-02-11 03:35:00
9:55 PM,9.1,4.1,80,30.40,10.0,Calm,Calm,-,N/A,,Clear,0,2014-02-11 03:55:00
10:15 PM,8.6,3.6,80,30.41,10.0,Calm,Calm,-,N/A,,Clear,0,2014-02-11 04:15:00
10:35 PM,8.6,3.2,79,30.41,10.0,Calm,Calm,-,N/A,,Clear,0,2014-02-11 04:35:00
10:55 PM,8.6,3.6,80,30.41,10.0,Calm,Calm,-,N/A,,Clear,0,2014-02-11 04:55:00
11:15 PM,8.1,3.2,81,30.41,10.0,Calm,Calm,-,N/A,,Clear,0,2014-02-11 05:15:00
11:35 PM,8.1,3.0,80,30.41,10.0,Calm,Calm,-,N/A,,Clear,0,2014-02-11 05:35:00
11:55 PM,7.2,2.7,82,30.41,10.0,Calm,Calm,-,N/A,,Clear,0,2014-02-11 05:55:00